Time,TemperatureF,DewpointF,PressureIn,WindDirection,WindDirectionDegrees,WindSpeedMPH,WindSpeedGustMPH,Humidity,HourlyPrecipIn,Conditions,Clouds,dailyrainin,SoftwareType,DateUTC
2013-11-24 00:01:00,18.9,15.7,30.63,NNE,20,1.0,8.0,87,0.00,,---,0.00,VWS V14.01,2013-11-24 05:01:00,
2013-11-24 00:31:00,18.7,15.5,30.63,NNW,348,4.0,8.0,87,0.00,,---,0.00,VWS V14.01,2013-11-24 05:31:00,
2013-11-24 01:01:00,17.9,14.7,30.62,ENE,58,1.0,9.0,87,0.00,,---,0.00,VWS V14.01,2013-11-24 06:01:00,
2013-11-24 01:31:00,18.1,15.4,30.62,North,10,3.0,6.0,89,0.00,,---,0.00,VWS V14.01,2013-11-24 06:31:00,
2013-11-24 02:01:00,17.8,14.9,30.62,NE,39,1.0,5.0,88,0.00,,---,0.00,VWS V14.01,2013-11-24 07:01:00,
2013-11-24 02:31:00,17.2,14.5,30.62,NE,43,1.0,4.0,89,0.00,,---,0.00,VWS V14.01,2013-11-24 07:31:00,
2013-11-24 03:01:00,17.1,14.4,30.63,NNE,32,1.0,3.0,89,0.00,,---,0.00,VWS V14.01,2013-11-24 08:01:00,
2013-11-24 03:31:00,17.9,14.9,30.64,NE,43,0.0,4.0,88,0.00,,---,0.00,VWS V14.01,2013-11-24 08:31:00,
2013-11-24 04:01:00,18.6,16.4,30.64,WNW,287,4.0,7.0,91,0.00,,---,0.00,VWS V14.01,2013-11-24 09:01:00,
2013-11-24 04:31:00,18.4,16.2,30.64,NW,321,3.0,7.0,91,0.00,,---,0.00,VWS V14.01,2013-11-24 09:31:00,
2013-11-24 05:01:00,18.4,16.0,30.64,West,269,2.0,6.0,90,0.00,,---,0.00,VWS V14.01,2013-11-24 10:01:00,
2013-11-24 05:31:00,18.2,16.0,30.64,West,266,4.0,5.0,91,0.00,,---,0.00,VWS V14.01,2013-11-24 10:31:00,
2013-11-24 06:01:00,17.7,15.8,30.64,SE,133,1.0,5.0,92,0.00,,---,0.00,VWS V14.01,2013-11-24 11:01:00,
2013-11-24 06:31:00,15.1,13.2,30.63,SE,127,0.0,1.0,92,0.00,,---,0.00,VWS V14.01,2013-11-24 11:31:00,
2013-11-24 07:01:00,15.4,13.5,30.64,East,101,0.0,1.0,92,0.00,,---,0.00,VWS V14.01,2013-11-24 12:01:00,
2013-11-24 07:31:00,16.1,14.4,30.66,SW,215,0.0,2.0,93,0.00,,---,0.00,VWS V14.01,2013-11-24 12:31:00,
2013-11-24 08:01:00,15.8,13.9,30.67,SSW,193,0.0,2.0,92,0.00,,---,0.00,VWS V14.01,2013-11-24 13:01:00,
2013-11-24 08:31:00,16.2,14.3,30.67,SSE,153,1.0,3.0,92,0.00,,---,0.00,VWS V14.01,2013-11-24 13:31:00,
2013-11-24 09:01:00,17.0,14.8,30.68,WSW,245,3.0,6.0,91,0.00,,---,0.00,VWS V14.01,2013-11-24 14:01:00,
2013-11-24 09:31:00,17.8,14.9,30.69,West,269,3.0,6.0,88,0.00,,---,0.00,VWS V14.01,2013-11-24 14:31:00,
2013-11-24 10:01:00,20.0,16.8,30.70,West,274,7.0,9.0,87,0.00,,---,0.00,VWS V14.01,2013-11-24 15:01:00,
2013-11-24 10:31:00,20.8,17.0,30.70,WNW,290,5.0,12.0,85,0.00,,---,0.00,VWS V14.01,2013-11-24 15:31:00,
2013-11-24 11:01:00,21.2,17.4,30.70,WNW,290,10.0,12.0,85,0.00,,---,0.00,VWS V14.01,2013-11-24 16:01:00,
2013-11-24 11:31:00,22.1,17.7,30.69,WNW,286,7.0,12.0,83,0.00,,---,0.00,VWS V14.01,2013-11-24 16:31:00,
2013-11-24 12:01:00,22.7,17.8,30.68,WNW,284,12.0,15.0,81,0.00,,---,0.00,VWS V14.01,2013-11-24 17:01:00,
2013-11-24 12:31:00,23.3,17.8,30.67,WNW,301,5.0,13.0,79,0.00,,---,0.00,VWS V14.01,2013-11-24 17:31:00,
2013-11-24 13:01:00,23.6,17.8,30.66,WNW,294,9.0,13.0,78,0.00,,---,0.00,VWS V14.01,2013-11-24 18:01:00,
2013-11-24 13:31:00,23.8,18.0,30.65,WNW,283,9.0,14.0,78,0.00,,---,0.00,VWS V14.01,2013-11-24 18:31:00,
2013-11-24 14:01:00,23.7,17.0,30.64,West,274,6.0,14.0,75,0.00,,---,0.00,VWS V14.01,2013-11-24 19:01:00,
2013-11-24 14:31:00,24.8,17.1,30.61,West,264,8.0,15.0,72,0.00,,---,0.00,VWS V14.01,2013-11-24 19:31:00,
2013-11-24 15:01:00,25.1,17.4,30.60,West,267,10.0,14.0,72,0.00,,---,0.00,VWS V14.01,2013-11-24 20:01:00,
2013-11-24 15:31:00,25.4,16.7,30.60,West,264,7.0,11.0,69,0.00,,---,0.00,VWS V14.01,2013-11-24 20:31:00,
2013-11-24 16:01:00,25.4,16.3,30.61,WSW,250,3.0,14.0,68,0.00,,---,0.00,VWS V14.01,2013-11-24 21:01:00,
2013-11-24 16:31:00,24.8,16.4,30.60,WNW,294,6.0,11.0,70,0.00,,---,0.00,VWS V14.01,2013-11-24 21:31:00,
2013-11-24 17:01:00,25.4,16.7,30.58,WNW,285,3.0,8.0,69,0.00,,---,0.00,VWS V14.01,2013-11-24 22:01:00,
2013-11-24 17:31:00,24.2,15.8,30.58,West,278,1.0,6.0,70,0.00,,---,0.00,VWS V14.01,2013-11-24 22:31:00,
2013-11-24 18:01:00,23.3,15.0,30.58,SE,141,1.0,5.0,70,0.00,,---,0.00,VWS V14.01,2013-11-24 23:01:00,
2013-11-24 18:31:00,21.5,14.8,30.58,SSW,195,0.0,2.0,75,0.00,,---,0.00,VWS V14.01,2013-11-24 23:31:00,
2013-11-24 19:01:00,21.4,13.5,30.57,SSW,210,0.0,3.0,71,0.00,,---,0.00,VWS V14.01,2013-11-25 00:01:00,
2013-11-24 19:31:00,20.2,12.9,30.56,SE,125,0.0,3.0,73,0.00,,---,0.00,VWS V14.01,2013-11-25 00:31:00,
2013-11-24 20:01:00,19.8,12.2,30.55,SSW,209,1.0,3.0,72,0.00,,---,0.00,VWS V14.01,2013-11-25 01:01:00,
2013-11-24 20:31:00,19.7,11.5,30.54,SE,133,0.0,3.0,70,0.00,,---,0.00,VWS V14.01,2013-11-25 01:31:00,
2013-11-24 21:01:00,19.4,10.9,30.54,SSW,201,0.0,3.0,69,0.00,,---,0.00,VWS V14.01,2013-11-25 02:01:00,
2013-11-24 21:31:00,19.4,10.2,30.53,SSW,211,3.0,3.0,67,0.00,,---,0.00,VWS V14.01,2013-11-25 02:31:00,
2013-11-24 22:01:00,18.8,9.3,30.52,SSE,161,0.0,3.0,66,0.00,,---,0.00,VWS V14.01,2013-11-25 03:01:00,
2013-11-24 22:31:00,19.1,9.6,30.52,SW,214,4.0,4.0,66,0.00,,---,0.00,VWS V14.01,2013-11-25 03:31:00,
2013-11-24 23:01:00,18.2,9.4,30.50,ESE,114,0.0,4.0,68,0.00,,---,0.00,VWS V14.01,2013-11-25 04:01:00,
2013-11-24 23:31:00,17.8,10.3,30.51,SE,139,0.0,2.0,72,0.00,,---,0.00,VWS V14.01,2013-11-25 04:31:00,